Time,TemperatureF,DewpointF,PressureIn,WindDirection,WindDirectionDegrees,WindSpeedMPH,WindSpeedGustMPH,Humidity,HourlyPrecipIn,Conditions,Clouds,dailyrainin,SoftwareType,DateUTC
2013-04-07 00:03:00,42.0,23.0,30.08,ESE,121,4.0,11.0,47,0.00,,,0.00,,2013-04-07 04:03:00,
2013-04-07 00:14:00,42.0,23.0,30.08,ESE,121,4.0,11.0,47,0.00,,,0.00,,2013-04-07 04:14:00,
2013-04-07 00:23:00,42.0,24.0,30.08,SE,126,2.0,7.0,48,0.00,,,0.00,,2013-04-07 04:23:00,
2013-04-07 00:32:00,42.0,24.0,30.07,SE,131,8.0,10.0,49,0.00,,,0.00,,2013-04-07 04:32:00,
2013-04-07 00:43:00,42.0,24.0,30.07,SE,131,8.0,10.0,49,0.00,,,0.00,,2013-04-07 04:43:00,
2013-04-07 00:52:00,42.0,24.0,30.07,SE,131,8.0,10.0,49,0.00,,,0.00,,2013-04-07 04:52:00,
2013-04-07 01:02:00,42.0,24.0,30.06,SE,133,2.0,11.0,49,0.00,,,0.00,,2013-04-07 05:02:00,
2013-04-07 01:12:00,42.0,24.0,30.06,SE,133,2.0,11.0,49,0.00,,,0.00,,2013-04-07 05:12:00,
2013-04-07 01:23:00,42.0,25.0,30.07,ESE,120,4.0,7.0,50,0.00,,,0.00,,2013-04-07 05:23:00,
2013-04-07 01:33:00,42.0,24.0,30.06,ESE,121,2.0,6.0,49,0.00,,,0.00,,2013-04-07 05:33:00,
2013-04-07 01:43:00,42.0,24.0,30.06,ESE,121,2.0,6.0,49,0.00,,,0.00,,2013-04-07 05:43:00,
2013-04-07 01:52:00,42.0,24.0,30.06,ESE,121,2.0,6.0,49,0.00,,,0.00,,2013-04-07 05:52:00,
2013-04-07 02:02:00,42.0,25.0,30.05,SE,129,5.0,10.0,50,0.00,,,0.00,,2013-04-07 06:02:00,
2013-04-07 02:13:00,42.0,25.0,30.05,SE,129,5.0,10.0,50,0.00,,,0.00,,2013-04-07 06:13:00,
2013-04-07 02:22:00,42.0,25.0,30.05,SE,128,5.0,10.0,50,0.00,,,0.00,,2013-04-07 06:22:00,
2013-04-07 02:32:00,42.0,25.0,30.04,SE,136,6.0,10.0,50,0.00,,,0.00,,2013-04-07 06:32:00,
2013-04-07 02:43:00,42.0,25.0,30.04,SE,136,6.0,10.0,50,0.00,,,0.00,,2013-04-07 06:43:00,
2013-04-07 02:52:00,42.0,25.0,30.04,SE,136,6.0,10.0,50,0.00,,,0.00,,2013-04-07 06:52:00,
2013-04-07 03:02:00,42.0,25.0,30.04,ESE,113,3.0,7.0,50,0.00,,,0.00,,2013-04-07 07:02:00,
2013-04-07 03:12:00,42.0,25.0,30.04,ESE,113,3.0,7.0,50,0.00,,,0.00,,2013-04-07 07:12:00,
2013-04-07 03:22:00,42.0,25.0,30.03,SE,131,5.0,7.0,50,0.00,,,0.00,,2013-04-07 07:22:00,
2013-04-07 03:33:00,42.0,25.0,30.03,ESE,117,6.0,7.0,50,0.00,,,0.00,,2013-04-07 07:33:00,
2013-04-07 03:42:00,42.0,25.0,30.03,ESE,117,6.0,7.0,50,0.00,,,0.00,,2013-04-07 07:42:00,
2013-04-07 03:52:00,43.0,26.0,30.03,ESE,110,2.0,10.0,50,0.00,,,0.00,,2013-04-07 07:52:00,
2013-04-07 04:02:00,43.0,26.0,30.03,SE,128,4.0,9.0,50,0.00,,,0.00,,2013-04-07 08:02:00,
2013-04-07 04:13:00,43.0,26.0,30.03,SE,128,4.0,9.0,50,0.00,,,0.00,,2013-04-07 08:13:00,
2013-04-07 04:22:00,43.0,26.0,30.02,ESE,121,2.0,8.0,51,0.00,,,0.00,,2013-04-07 08:22:00,
2013-04-07 04:33:00,43.0,26.0,30.02,ENE,77,4.0,8.0,51,0.00,,,0.00,,2013-04-07 08:33:00,
2013-04-07 04:42:00,43.0,26.0,30.02,ENE,77,4.0,8.0,51,0.00,,,0.00,,2013-04-07 08:42:00,
2013-04-07 04:52:00,43.0,26.0,30.02,East,95,2.0,7.0,51,0.00,,,0.00,,2013-04-07 08:52:00,
2013-04-07 05:02:00,43.0,26.0,30.02,East,95,2.0,7.0,51,0.00,,,0.00,,2013-04-07 09:02:00,
2013-04-07 05:12:00,43.0,26.0,30.02,East,95,2.0,7.0,51,0.00,,,0.00,,2013-04-07 09:12:00,
2013-04-07 05:23:00,43.0,27.0,30.01,ESE,107,0.0,9.0,53,0.00,,,0.00,,2013-04-07 09:23:00,
2013-04-07 05:34:00,42.0,27.0,30.01,East,85,2.0,6.0,54,0.00,,,0.00,,2013-04-07 09:34:00,
2013-04-07 05:43:00,42.0,27.0,30.01,East,85,2.0,6.0,54,0.00,,,0.00,,2013-04-07 09:43:00,
2013-04-07 05:53:00,43.0,28.0,30.01,ENE,73,3.0,6.0,54,0.00,,,0.00,,2013-04-07 09:53:00,
2013-04-07 06:04:00,43.0,28.0,30.01,ENE,73,3.0,6.0,54,0.00,,,0.00,,2013-04-07 10:04:00,
2013-04-07 06:14:00,43.0,28.0,30.01,ENE,73,3.0,6.0,54,0.00,,,0.00,,2013-04-07 10:14:00,
2013-04-07 06:23:00,44.0,28.0,30.00,East,90,4.0,6.0,54,0.00,,,0.00,,2013-04-07 10:23:00,
2013-04-07 06:34:00,44.0,28.0,30.00,East,96,4.0,7.0,54,0.00,,,0.00,,2013-04-07 10:34:00,
2013-04-07 06:43:00,44.0,28.0,30.00,East,96,4.0,7.0,54,0.00,,,0.00,,2013-04-07 10:43:00,
2013-04-07 06:53:00,45.0,29.0,30.00,ESE,105,2.0,7.0,54,0.00,,,0.00,,2013-04-07 10:53:00,
2013-04-07 07:03:00,44.0,29.0,30.00,East,101,4.0,6.0,56,0.00,,,0.00,,2013-04-07 11:03:00,
2013-04-07 07:12:00,44.0,29.0,30.00,East,101,4.0,6.0,56,0.00,,,0.00,,2013-04-07 11:12:00,
2013-04-07 07:23:00,44.0,29.0,30.00,East,101,4.0,6.0,56,0.00,,,0.00,,2013-04-07 11:23:00,
2013-04-07 07:33:00,44.0,30.0,30.00,East,93,5.0,7.0,57,0.00,,,0.00,,2013-04-07 11:33:00,
2013-04-07 07:43:00,44.0,30.0,30.00,East,93,5.0,7.0,57,0.00,,,0.00,,2013-04-07 11:43:00,
2013-04-07 07:53:00,44.0,29.0,30.00,East,94,5.0,7.0,56,0.00,,,0.00,,2013-04-07 11:53:00,
2013-04-07 08:03:00,44.0,29.0,30.00,ENE,76,0.0,4.0,55,0.00,,,0.00,,2013-04-07 12:03:00,
2013-04-07 08:13:00,44.0,29.0,30.00,ENE,76,0.0,4.0,55,0.00,,,0.00,,2013-04-07 12:13:00,
2013-04-07 08:23:00,44.0,29.0,30.00,ENE,76,0.0,4.0,55,0.00,,,0.00,,2013-04-07 12:23:00,
2013-04-07 08:34:00,45.0,30.0,30.00,ENE,78,3.0,6.0,56,0.00,,,0.00,,2013-04-07 12:34:00,
2013-04-07 08:43:00,45.0,30.0,30.00,ENE,78,3.0,6.0,56,0.00,,,0.00,,2013-04-07 12:43:00,
2013-04-07 08:54:00,45.0,30.0,30.00,ENE,78,3.0,6.0,56,0.00,,,0.00,,2013-04-07 12:54:00,
2013-04-07 09:05:00,47.0,32.0,30.00,East,94,4.0,5.0,56,0.00,,,0.00,,2013-04-07 13:05:00,
2013-04-07 09:13:00,47.0,32.0,30.00,East,94,4.0,5.0,56,0.00,,,0.00,,2013-04-07 13:13:00,
2013-04-07 09:23:00,47.0,33.0,30.00,East,90,0.0,4.0,57,0.00,,,0.00,,2013-04-07 13:23:00,
2013-04-07 09:33:00,48.0,33.0,30.00,SE,131,0.0,4.0,56,0.00,,,0.00,,2013-04-07 13:33:00,
2013-04-07 09:42:00,48.0,33.0,30.00,SE,131,0.0,4.0,56,0.00,,,0.00,,2013-04-07 13:42:00,
2013-04-07 09:52:00,51.0,35.0,29.99,SE,124,10.0,11.0,55,0.00,,,0.00,,2013-04-07 13:52:00,
2013-04-07 10:02:00,51.0,35.0,29.99,SE,124,10.0,11.0,55,0.00,,,0.00,,2013-04-07 14:02:00,
2013-04-07 10:13:00,51.0,35.0,29.99,SE,124,10.0,11.0,55,0.00,,,0.00,,2013-04-07 14:13:00,
2013-04-07 10:23:00,56.0,39.0,29.98,SSE,157,0.0,15.0,52,0.00,,,0.00,,2013-04-07 14:23:00,
2013-04-07 10:33:00,56.0,39.0,29.98,SSE,157,0.0,15.0,52,0.00,,,0.00,,2013-04-07 14:33:00,
2013-04-07 10:44:00,56.0,39.0,29.98,SSE,157,0.0,15.0,52,0.00,,,0.00,,2013-04-07 14:44:00,
2013-04-07 10:53:00,56.0,39.0,29.98,SSE,157,0.0,15.0,52,0.00,,,0.00,,2013-04-07 14:53:00,
2013-04-07 11:03:00,59.0,41.0,29.97,West,265,7.0,22.0,51,0.00,,,0.00,,2013-04-07 15:03:00,
2013-04-07 11:13:00,59.0,41.0,29.97,West,265,7.0,22.0,51,0.00,,,0.00,,2013-04-07 15:13:00,
2013-04-07 11:23:00,59.0,41.0,29.96,NW,307,1.0,18.0,51,0.00,,,0.00,,2013-04-07 15:23:00,
2013-04-07 11:35:00,59.0,41.0,29.96,NW,307,1.0,18.0,51,0.00,,,0.00,,2013-04-07 15:35:00,
2013-04-07 11:45:00,59.0,41.0,29.96,NW,307,1.0,18.0,51,0.00,,,0.00,,2013-04-07 15:45:00,
2013-04-07 11:53:00,59.0,41.0,29.97,WNW,284,6.0,19.0,51,0.00,,,0.00,,2013-04-07 15:53:00,
2013-04-07 12:05:00,59.0,41.0,29.97,WSW,246,9.0,29.0,51,0.00,,,0.00,,2013-04-07 16:05:00,
2013-04-07 12:14:00,59.0,41.0,29.97,WSW,246,9.0,29.0,51,0.00,,,0.00,,2013-04-07 16:14:00,
2013-04-07 12:25:00,60.0,41.0,29.97,SW,219,10.0,17.0,50,0.00,,,0.00,,2013-04-07 16:25:00,
2013-04-07 12:34:00,60.0,42.0,29.96,WSW,257,10.0,20.0,51,0.00,,,0.00,,2013-04-07 16:34:00,
2013-04-07 12:43:00,60.0,42.0,29.96,WSW,257,10.0,20.0,51,0.00,,,0.00,,2013-04-07 16:43:00,
2013-04-07 12:53:00,60.0,42.0,29.96,WSW,257,10.0,20.0,51,0.00,,,0.00,,2013-04-07 16:53:00,
2013-04-07 13:05:00,60.0,42.0,29.96,WSW,257,10.0,20.0,51,0.00,,,0.00,,2013-04-07 17:05:00,
2013-04-07 13:24:00,60.0,43.0,29.96,SW,219,16.0,23.0,53,0.00,,,0.00,,2013-04-07 17:24:00,
2013-04-07 13:33:00,60.0,43.0,29.96,WSW,257,16.0,22.0,53,0.00,,,0.00,,2013-04-07 17:33:00,
2013-04-07 13:43:00,60.0,43.0,29.96,WSW,257,16.0,22.0,53,0.00,,,0.00,,2013-04-07 17:43:00,
2013-04-07 13:53:00,61.0,43.0,29.95,WSW,246,3.0,26.0,52,0.00,,,0.00,,2013-04-07 17:53:00,
2013-04-07 14:03:00,63.0,44.0,29.94,South,188,5.0,15.0,50,0.00,,,0.00,,2013-04-07 18:03:00,
2013-04-07 14:14:00,63.0,44.0,29.94,South,188,5.0,15.0,50,0.00,,,0.00,,2013-04-07 18:14:00,
2013-04-07 14:23:00,63.0,44.0,29.94,South,188,5.0,15.0,50,0.00,,,0.00,,2013-04-07 18:23:00,
2013-04-07 14:33:00,62.0,44.0,29.94,SW,232,4.0,18.0,51,0.00,,,0.00,,2013-04-07 18:33:00,
2013-04-07 14:43:00,62.0,44.0,29.94,SW,232,4.0,18.0,51,0.00,,,0.00,,2013-04-07 18:43:00,
2013-04-07 14:53:00,62.0,44.0,29.94,SW,232,4.0,18.0,51,0.00,,,0.00,,2013-04-07 18:53:00,
2013-04-07 15:03:00,62.0,44.0,29.93,WSW,245,1.0,22.0,52,0.00,,,0.00,,2013-04-07 19:03:00,
2013-04-07 15:13:00,62.0,44.0,29.93,WSW,245,1.0,22.0,52,0.00,,,0.00,,2013-04-07 19:13:00,
2013-04-07 15:23:00,62.0,44.0,29.93,WSW,245,1.0,22.0,52,0.00,,,0.00,,2013-04-07 19:23:00,
2013-04-07 15:33:00,64.0,45.0,29.93,SW,225,7.0,17.0,50,0.00,,,0.00,,2013-04-07 19:33:00,
2013-04-07 15:43:00,64.0,45.0,29.93,SW,225,7.0,17.0,50,0.00,,,0.00,,2013-04-07 19:43:00,
2013-04-07 15:55:00,64.0,45.0,29.93,SW,225,7.0,17.0,50,0.00,,,0.00,,2013-04-07 19:55:00,
2013-04-07 16:03:00,64.0,45.0,29.93,SW,225,7.0,17.0,50,0.00,,,0.00,,2013-04-07 20:03:00,
2013-04-07 16:13:00,64.0,45.0,29.93,SW,225,7.0,17.0,50,0.00,,,0.00,,2013-04-07 20:13:00,
2013-04-07 16:33:00,64.0,45.0,29.92,SW,226,3.0,18.0,51,0.00,,,0.00,,2013-04-07 20:33:00,
2013-04-07 16:44:00,64.0,45.0,29.92,SW,226,3.0,18.0,51,0.00,,,0.00,,2013-04-07 20:44:00,
2013-04-07 16:55:00,64.0,45.0,29.92,SW,226,3.0,18.0,51,0.00,,,0.00,,2013-04-07 20:55:00,
2013-04-07 17:04:00,63.0,46.0,29.93,WSW,253,4.0,14.0,53,0.00,,,0.00,,2013-04-07 21:04:00,
2013-04-07 17:14:00,63.0,46.0,29.93,WSW,253,4.0,14.0,53,0.00,,,0.00,,2013-04-07 21:14:00,
2013-04-07 17:23:00,62.0,45.0,29.93,South,188,4.0,15.0,54,0.00,,,0.00,,2013-04-07 21:23:00,
2013-04-07 17:34:00,62.0,46.0,29.93,ESE,107,1.0,17.0,55,0.00,,,0.00,,2013-04-07 21:34:00,
2013-04-07 17:44:00,62.0,46.0,29.93,ESE,107,1.0,17.0,55,0.00,,,0.00,,2013-04-07 21:44:00,
2013-04-07 17:53:00,62.0,46.0,29.94,SW,223,6.0,14.0,55,0.00,,,0.00,,2013-04-07 21:53:00,
2013-04-07 18:05:00,62.0,46.0,29.94,SW,223,6.0,14.0,55,0.00,,,0.00,,2013-04-07 22:05:00,
2013-04-07 18:14:00,62.0,46.0,29.94,SW,223,6.0,14.0,55,0.00,,,0.00,,2013-04-07 22:14:00,
2013-04-07 18:24:00,62.0,46.0,29.94,NNW,327,3.0,14.0,56,0.00,,,0.00,,2013-04-07 22:24:00,
2013-04-07 18:34:00,62.0,46.0,29.94,NNW,327,3.0,14.0,56,0.00,,,0.00,,2013-04-07 22:34:00,
2013-04-07 18:43:00,62.0,46.0,29.94,NNW,327,3.0,14.0,56,0.00,,,0.00,,2013-04-07 22:43:00,
2013-04-07 18:53:00,62.0,47.0,29.95,West,279,3.0,9.0,57,0.00,,,0.00,,2013-04-07 22:53:00,
2013-04-07 19:04:00,61.0,47.0,29.95,WNW,284,7.0,20.0,59,0.00,,,0.00,,2013-04-07 23:04:00,
2013-04-07 19:13:00,61.0,47.0,29.95,WNW,284,7.0,20.0,59,0.00,,,0.00,,2013-04-07 23:13:00,
2013-04-07 19:23:00,61.0,48.0,29.97,West,277,9.0,15.0,62,0.00,,,0.00,,2013-04-07 23:23:00,
2013-04-07 19:33:00,53.0,49.0,29.99,West,261,3.0,16.0,87,0.14,,,0.14,,2013-04-07 23:33:00,
2013-04-07 19:43:00,53.0,49.0,29.99,West,261,3.0,16.0,87,0.14,,,0.14,,2013-04-07 23:43:00,
2013-04-07 19:52:00,52.0,49.0,29.98,WSW,243,2.0,10.0,91,0.15,,,0.15,,2013-04-07 23:52:00,
2013-04-07 20:03:00,52.0,49.0,29.98,WSW,243,2.0,10.0,91,0.15,,,0.15,,2013-04-08 00:03:00,
2013-04-07 20:12:00,52.0,49.0,29.98,WSW,243,2.0,10.0,91,0.15,,,0.15,,2013-04-08 00:12:00,
2013-04-07 20:23:00,51.0,48.0,29.98,WNW,289,3.0,4.0,89,0.16,,,0.16,,2013-04-08 00:23:00,
2013-04-07 20:33:00,51.0,48.0,29.98,WNW,289,3.0,4.0,89,0.16,,,0.16,,2013-04-08 00:33:00,
2013-04-07 20:42:00,51.0,48.0,29.98,WNW,289,3.0,4.0,89,0.16,,,0.16,,2013-04-08 00:42:00,
2013-04-07 20:52:00,51.0,48.0,29.98,WNW,289,3.0,4.0,89,0.16,,,0.16,,2013-04-08 00:52:00,
2013-04-07 21:34:00,52.0,47.0,29.99,South,172,0.0,5.0,84,0.00,,,0.16,,2013-04-08 01:34:00,
2013-04-07 21:45:00,52.0,47.0,29.99,South,172,0.0,5.0,84,0.00,,,0.16,,2013-04-08 01:45:00,
2013-04-07 21:55:00,52.0,47.0,29.99,South,172,0.0,5.0,84,0.00,,,0.16,,2013-04-08 01:55:00,
2013-04-07 22:03:00,52.0,47.0,30.00,NNW,334,3.0,6.0,82,0.00,,,0.16,,2013-04-08 02:03:00,
2013-04-07 22:12:00,52.0,47.0,30.00,NNW,334,3.0,6.0,82,0.00,,,0.16,,2013-04-08 02:12:00,
2013-04-07 22:22:00,52.0,47.0,30.00,NNW,334,3.0,6.0,82,0.00,,,0.16,,2013-04-08 02:22:00,
2013-04-07 22:33:00,54.0,48.0,30.01,NW,323,2.0,12.0,80,0.00,,,0.16,,2013-04-08 02:33:00,
2013-04-07 22:47:00,54.0,48.0,30.01,NW,323,2.0,12.0,80,0.00,,,0.16,,2013-04-08 02:47:00,
2013-04-07 22:55:00,54.0,48.0,30.01,NNW,336,5.0,9.0,80,0.00,,,0.16,,2013-04-08 02:55:00,
2013-04-07 23:08:00,54.0,47.0,30.01,NNW,338,3.0,7.0,77,0.00,,,0.16,,2013-04-08 03:08:00,
2013-04-07 23:15:00,54.0,47.0,30.01,NNW,338,3.0,7.0,77,0.00,,,0.16,,2013-04-08 03:15:00,
2013-04-07 23:25:00,54.0,47.0,30.00,NW,318,5.0,10.0,77,0.00,,,0.16,,2013-04-08 03:25:00,
2013-04-07 23:36:00,54.0,47.0,30.00,NNW,347,4.0,7.0,78,0.00,,,0.16,,2013-04-08 03:36:00,
2013-04-07 23:47:00,54.0,47.0,30.00,NNW,347,4.0,7.0,78,0.00,,,0.16,,2013-04-08 03:47:00,
2013-04-07 23:53:00,54.0,47.0,30.00,NW,307,3.0,8.0,78,0.00,,,0.16,,2013-04-08 03:53:00,